Location: Huberhof
(49.2050°N, 7.4980°E)
Time: 01:13:27
(UTC+00:00)

Meteor 2-17 Rocket - Pass Details

Date: 29 October 2020
Orbit: 934 x 957 km, 82.5° (Epoch: 26 November)

Event Time Altitude Azimuth Distance (km) Brightness Sun altitude
Rises 18:35:59 0° 352° (N) 3,606 7.7 -23.8°
Reaches altitude 10° 18:38:31 10° 356° (N) 2,657 6.9 -24.2°
Maximum altitude 18:44:31 59° 76° (ENE) 1,073 4.4 -25.2°
Enters shadow 18:44:33 59° 78° (ENE) 1,073 4.3 -25.2°
